Location: Dugenta
(41.1333°N, 14.4500°E)
Time: 14:56:28
(UTC+00:00)

Aureole 2 Rocket - Pass Details

Date: 03 March 2021
Orbit: 276 x 343 km, 73.9° (Epoch: 14 April)

Event Time Altitude Azimuth Distance (km) Brightness Sun altitude
Rises 17:31:33 0° 355° (N) 1,970 5.7 -7.6°
Reaches altitude 10° 17:33:49 10° 17° (NNE) 1,131 4.3 -8.0°
Maximum altitude 17:35:36 18° 64° (ENE) 796 3.1 -8.3°
Enters shadow 17:36:52 13° 102° (ESE) 971 3.5 -8.6°
